MUOS-5

Last updated on Tue Jul 01 2025 00:02:47 GMT+0000 (Coordinated Universal Time)

1 41622U 16041A 25181.58293530 -.00000150 00000+0 00000+0 0 9994 2 41622 2.9888 297.4365 0196423 258.4795 187.7989 1.00271717 33565
UTC large
Height (km)
Speed (km/s)
/
Latitude / Longitude
Inclination (degrees)
Orbital Period (minutes)
Azimuth
Elevation
Range (km)
Doppler Factor

Next 0 passes for location: London (51.5072 / 0.1276)

Sorry there are no passes over London.